Eagle River, WI

1:23 AM CDT on June 23, 2017 (GMT -0500)
Eagle River Union

Weather History for KEGV - April, 2013

Change the Weather History Date:

Friday, April 19, 2013

  Actual Average Record
Temperature  
Mean Temperature 26 °F -  
Max Temperature 32 °F 49 °F 73 °F (2005)
Min Temperature 21 °F 28 °F 21 °F (2013)
Degree Days  
Heating Degree Days 38    
Moisture  
Dew Point 23 °F    
Average Humidity 87    
Maximum Humidity 100    
Minimum Humidity 69    
Precipitation  
Precipitation 0.12 in - - ()
Sea Level Pressure  
Sea Level Pressure 29.37 in    
Wind  
Wind Speed 13 mph (NNW)    
Max Wind Speed 24 mph    
Max Gust Speed 34 mph    
Visibility 3 miles    
Events Snow    
Averages and records for this station are not official NWS values.
T = Trace of Precipitation, MM = Missing Value Source: NWS Daily Summary

Daily Weather History Graph

Daily Weather History Graph

Search for Another Location

Airport or City:

Trip Planner

Search our weather history database for the weather conditions in past years. The results will help you decide how hot, cold, wet, or windy it might be!

Date:

Astronomy

Apr. 19, 2013 Rise Set
Actual Time 6:03 AM CDT 7:49 PM CDT
Civil Twilight 5:31 AM CDT 8:21 PM CDT
Nautical Twilight 4:53 AM CDT 9:00 PM CDT
Astronomical Twilight 4:11 AM CDT 9:42 PM CDT
Moon 1:14 PM CDT (4/19) 2:39 AM CDT (4/19)
Length of Visible Light 14h 49m
Length of Day
13h 46m
First Quarter, 62% of the Moon is Illuminated
Apr 19
First Quarter
Apr 25
Full
May 2
Last Quarter
May 9
New
May 17
First Quarter

Hourly Weather History & Observations

Time (CDT) Temp. Windchill Dew Point Humidity Pressure Visibility Wind Dir Wind Speed Gust Speed Precip Events Conditions
12:15 AM 32.0 °F 23.0 °F 32.0 °F 100% 29.22 in 2.5 mi NE 11.5 mph - 0.01 in   Overcast
12:35 AM 32.0 °F 24.2 °F 32.0 °F 100% 29.20 in 2.5 mi NNE 9.2 mph - 0.02 in   Overcast
12:55 AM 32.0 °F 24.8 °F 32.0 °F 100% 29.19 in 4.0 mi NE 8.1 mph - 0.03 in   Overcast
1:15 AM 32.0 °F 24.8 °F 32.0 °F 100% 29.18 in 4.0 mi NE 8.1 mph - 0.01 in   Overcast
1:35 AM 32.0 °F 24.2 °F 32.0 °F 100% 29.16 in 4.0 mi NE 9.2 mph - 0.02 in   Overcast
1:55 AM 32.0 °F 24.8 °F 32.0 °F 100% 29.16 in 4.0 mi NE 8.1 mph - 0.02 in   Overcast
2:15 AM 32.0 °F 25.6 °F 32.0 °F 100% 29.15 in 2.5 mi NNE 6.9 mph - 0.01 in   Overcast
2:35 AM 32.0 °F 25.6 °F 32.0 °F 100% 29.14 in 1.5 mi NNE 6.9 mph - 0.02 in Snow Light Snow
2:55 AM 32.0 °F 26.4 °F 32.0 °F 100% 29.13 in 1.8 mi NNE 5.8 mph - 0.02 in Snow Light Snow
3:15 AM 32.0 °F 27.5 °F 32.0 °F 100% 29.12 in 2.5 mi North 4.6 mph - 0.01 in Snow Light Snow
3:35 AM 32.0 °F 28.7 °F 32.0 °F 100% 29.12 in 2.5 mi North 3.5 mph - 0.02 in Snow Light Snow
3:55 AM 32.0 °F 27.5 °F 32.0 °F 100% 29.12 in 2.0 mi North 4.6 mph - 0.02 in Snow Light Snow
4:15 AM 32.0 °F 25.6 °F 32.0 °F 100% 29.11 in 1.2 mi North 6.9 mph - 0.01 in Snow Light Snow
4:35 AM 30.2 °F 21.9 °F 30.2 °F 100% 29.11 in 1.2 mi North 9.2 mph - 0.02 in Snow Light Snow
4:55 AM 30.2 °F 21.9 °F 30.2 °F 100% 29.10 in 2.0 mi NNW 9.2 mph - 0.02 in Snow Light Snow
5:15 AM 30.2 °F 20.8 °F 30.2 °F 100% 29.10 in 2.0 mi North 11.5 mph - N/A Snow Light Snow
5:35 AM 30.2 °F 20.8 °F 30.2 °F 100% 29.10 in 2.0 mi NNW 11.5 mph - 0.01 in Snow Light Snow
5:55 AM 30.2 °F 20.8 °F 30.2 °F 100% 29.11 in 1.2 mi NNW 11.5 mph - 0.01 in Snow Light Snow
6:15 AM 30.2 °F 20.2 °F 28.4 °F 93% 29.12 in 1.5 mi NNW 12.7 mph 18.4 mph N/A Snow Light Snow
6:35 AM 28.4 °F 17.5 °F 28.4 °F 100% 29.12 in 1.5 mi NNW 13.8 mph 19.6 mph N/A Snow Light Snow
6:55 AM 28.4 °F 17.5 °F 28.4 °F 100% 29.14 in 1.5 mi NNW 13.8 mph 20.7 mph N/A Snow Light Snow
7:15 AM 28.4 °F 17.0 °F 28.4 °F 100% 29.14 in 1.2 mi NNW 15.0 mph 23.0 mph N/A Snow Light Snow
7:35 AM 28.4 °F 16.6 °F 28.4 °F 100% 29.14 in 1.0 mi NNW 16.1 mph 24.2 mph N/A Snow Light Snow
7:55 AM 28.4 °F 15.8 °F 26.6 °F 93% 29.15 in 1.0 mi NNW 18.4 mph 23.0 mph N/A Snow Light Snow
8:15 AM 28.4 °F 16.6 °F 26.6 °F 93% 29.16 in 0.8 mi NNW 16.1 mph 25.3 mph N/A Snow Light Snow
8:55 AM 26.6 °F 13.4 °F 24.8 °F 93% 29.18 in 1.8 mi NNW 18.4 mph 24.2 mph N/A Snow Light Snow
9:15 AM 26.6 °F 13.4 °F 24.8 °F 93% 29.19 in 1.8 mi NW 18.4 mph 23.0 mph N/A Snow Light Snow
9:35 AM 26.6 °F 13.1 °F 23.0 °F 86% 29.20 in 1.5 mi NNW 19.6 mph 28.8 mph N/A Snow Light Snow
9:55 AM 26.6 °F 12.7 °F 23.0 °F 86% 29.21 in 1.8 mi NNW 20.7 mph 26.5 mph N/A Snow Light Snow
10:35 AM 26.6 °F 12.4 °F 24.8 °F 93% 29.24 in 0.8 mi NW 21.9 mph 26.5 mph N/A Snow Light Snow
10:55 AM 28.4 °F 15.8 °F 21.2 °F 74% 29.25 in 1.8 mi NNW 18.4 mph 26.5 mph N/A Snow Light Snow
11:15 AM 26.6 °F 13.4 °F 21.2 °F 80% 29.26 in 1.5 mi NNW 18.4 mph 27.6 mph N/A Snow Light Snow
11:35 AM 28.4 °F 16.2 °F 21.2 °F 74% 29.27 in 2.0 mi NW 17.3 mph 25.3 mph N/A Snow Light Snow
11:55 AM 26.6 °F 12.4 °F 19.4 °F 74% 29.29 in 1.8 mi NNW 21.9 mph 28.8 mph N/A Snow Light Snow
12:15 PM 28.4 °F 14.7 °F 19.4 °F 69% 29.30 in 3.0 mi NW 21.9 mph 34.5 mph N/A Snow Light Snow
12:35 PM 26.6 °F 12.4 °F 19.4 °F 74% 29.31 in 3.0 mi NW 21.9 mph 27.6 mph N/A Snow Light Snow
12:55 PM 26.6 °F 12.0 °F 19.4 °F 74% 29.33 in 2.5 mi NNW 23.0 mph 34.5 mph N/A   Haze
1:15 PM 28.4 °F 15.8 °F 19.4 °F 69% 29.35 in 3.0 mi NW 18.4 mph 28.8 mph N/A Snow Light Snow
1:35 PM 26.6 °F 11.7 °F 19.4 °F 74% 29.37 in 4.0 mi NW 24.2 mph 32.2 mph N/A Snow Light Snow
1:55 PM 26.6 °F 13.4 °F 17.6 °F 69% 29.38 in 2.5 mi NNW 18.4 mph 33.4 mph N/A   Haze
2:15 PM 26.6 °F 12.7 °F 19.4 °F 74% 29.40 in 1.5 mi NNW 20.7 mph 24.2 mph N/A Snow Light Snow
2:35 PM 23.0 °F 8.0 °F 17.6 °F 80% 29.42 in 0.8 mi NNW 20.7 mph 33.4 mph N/A Snow Light Snow
2:55 PM 24.8 °F 11.1 °F 17.6 °F 74% 29.43 in 2.5 mi NNW 18.4 mph 24.2 mph N/A Snow Light Snow
3:15 PM 23.0 °F 9.6 °F 19.4 °F 86% 29.44 in 0.8 mi NNW 16.1 mph 23.0 mph N/A Snow Light Snow
3:35 PM 23.0 °F 8.7 °F 17.6 °F 80% 29.46 in 1.0 mi NNW 18.4 mph 25.3 mph N/A Snow Light Snow
3:55 PM 23.0 °F 10.6 °F 19.4 °F 86% 29.48 in 0.5 mi NNW 13.8 mph 26.5 mph N/A Snow Light Snow
4:15 PM 23.0 °F 9.6 °F 19.4 °F 86% 29.50 in 0.5 mi NNW 16.1 mph 23.0 mph N/A Snow Light Snow
4:35 PM 23.0 °F 9.2 °F 17.6 °F 80% 29.51 in 2.0 mi NNW 17.3 mph 23.0 mph N/A Snow Light Snow
4:55 PM 23.0 °F 10.1 °F 17.6 °F 80% 29.53 in 4.0 mi NNW 15.0 mph 24.2 mph N/A Snow Light Snow
5:15 PM 23.0 °F 8.3 °F 17.6 °F 80% 29.55 in 4.0 mi NNW 19.6 mph 24.2 mph N/A Snow Light Snow
5:35 PM 23.0 °F 10.1 °F 17.6 °F 80% 29.57 in 2.0 mi NNW 15.0 mph 23.0 mph N/A Snow Light Snow
5:55 PM 23.0 °F 7.6 °F 17.6 °F 80% 29.58 in 2.0 mi NNW 21.9 mph 26.5 mph N/A Snow Light Snow
6:15 PM 23.0 °F 7.6 °F 17.6 °F 80% 29.60 in 2.5 mi NNW 21.9 mph 28.8 mph N/A   Haze
6:35 PM 23.0 °F 8.3 °F 17.6 °F 80% 29.62 in 3.0 mi NW 19.6 mph 25.3 mph N/A Snow Light Snow
6:55 PM 23.0 °F 9.2 °F 17.6 °F 80% 29.64 in 1.8 mi NNW 17.3 mph 25.3 mph N/A Snow Light Snow
7:15 PM 21.2 °F 8.3 °F 17.6 °F 86% 29.65 in 0.8 mi North 13.8 mph 25.3 mph N/A Snow Light Snow
7:55 PM 21.2 °F 10.1 °F 17.6 °F 86% 29.68 in 1.8 mi NNW 10.4 mph - N/A Snow Light Snow
8:15 PM 21.2 °F 8.9 °F 17.6 °F 86% 29.70 in 5.0 mi NNW 12.7 mph 21.9 mph N/A Snow Light Snow
8:35 PM 21.2 °F 7.8 °F 17.6 °F 86% 29.71 in 4.0 mi NNW 15.0 mph 21.9 mph N/A Snow Light Snow
8:55 PM 21.2 °F 10.9 °F 17.6 °F 86% 29.72 in 1.5 mi NW 9.2 mph 16.1 mph N/A Snow Snow
9:15 PM 21.2 °F 7.8 °F 17.6 °F 86% 29.74 in 5.0 mi NNW 15.0 mph 20.7 mph N/A Snow Light Snow
9:35 PM 21.2 °F 7.8 °F 17.6 °F 86% 29.75 in 4.0 mi NW 15.0 mph 20.7 mph N/A Snow Light Snow
9:55 PM 21.2 °F 7.8 °F 17.6 °F 86% 29.76 in 3.0 mi NW 15.0 mph 23.0 mph N/A Snow Light Snow
10:15 PM 21.2 °F 8.9 °F 15.8 °F 80% 29.77 in 5.0 mi NNW 12.7 mph 20.7 mph N/A Snow Light Snow
10:35 PM 21.2 °F 9.5 °F 15.8 °F 80% 29.78 in 7.0 mi NNW 11.5 mph 18.4 mph N/A Snow Light Snow
10:55 PM 21.2 °F 10.9 °F 15.8 °F 80% 29.79 in 7.0 mi NW 9.2 mph - N/A Snow Light Snow
11:15 PM 21.2 °F 9.5 °F 17.6 °F 86% 29.80 in 5.0 mi NW 11.5 mph - N/A Snow Light Snow
11:35 PM 21.2 °F 8.9 °F 15.8 °F 80% 29.81 in 10.0 mi NNW 12.7 mph 19.6 mph N/A   Overcast
11:55 PM 21.2 °F 8.3 °F 14.0 °F 74% 29.82 in 10.0 mi NW 13.8 mph 20.7 mph N/A   Overcast